Regional Weather Roundup
Issued by NWS Little Rock, AR

Home | Current Version | Previous Version | Text Only | Print | Product List | Glossary Off
Versions: 1 2 3 4 5 6 7 8 9 10 11 12 13 14 15 16 17 18 19 20 21 22 23 24 25 26 27 28 29 30 31 32 33 34 35 36 37 38 39 40 41 42 43 44 45 46 47 48 49 50

000
ASUS44 KLZK 191705
RWRLZK

WEATHER ROUNDUP FOR ARKANSAS
NATIONAL WEATHER SERVICE LITTLE ROCK AR
1200 PM CDT FRI SEP 19 2014

NOTE: "FAIR" INDICATES FEW OR NO CLOUDS BELOW 12,000 FEET WITH NO
SIGNIFICANT WEATHER AND/OR OBSTRUCTIONS TO VISIBILITY.

ARZ001-003-010-029-191800-
NORTHWEST ARKANSAS

CITY           SKY/WX    TMP DP  RH WIND       PRES   REMARKS
FAYETTEVILLE   SUNNY     77  67  71 VRB3      30.05F
FORT SMITH     CLOUDY    76  66  71 NE7       30.04S
HARRISON       PTSUNNY   72  64  76 S3        30.09S
BENTONVILLE    CLOUDY    75  66  73 CALM      30.07S
ROGERS         PTSUNNY   75  65  70 VRB3      30.07F
SILOAM SPGS    CLOUDY    75  64  69 W3        30.06F
HIGHFILL       PTSUNNY   76  67  73 E5        30.06S
SPRINGDALE     MOSUNNY   75  66  73 CALM      30.08S
$$

ARZ004-005-016-191800-
NORTH CENTRAL ARKANSAS

CITY           SKY/WX    TMP DP  RH WIND       PRES   REMARKS
BATESVILLE     SUNNY     79  64  61 E6        30.05S
FLIPPIN        SUNNY     73  61  64 SE6       30.07S
MTN HOME       MOSUNNY   74  62  66 E3        30.06F
$$

ARZ040-041-191800-
WEST CENTRAL ARKANSAS

CITY           SKY/WX    TMP DP  RH WIND       PRES   REMARKS
MENA           CLOUDY    73  70  88 CALM      30.06S
MOUNT IDA      SUNNY     78  68  71 VRB3      30.03R
$$

ARZ009-017-025-026-028-191800-
NORTHEAST ARKANSAS

CITY           SKY/WX    TMP DP  RH WIND       PRES   REMARKS
CORNING          N/A     75  63  64 E8        30.07S
JONESBORO      SUNNY     78  63  59 NE6       30.05F
NEWPORT        SUNNY     78  66  66 NE9       30.06F
WALNUT RIDGE   SUNNY     75  63  64 NE5       30.06S
BLYTHEVILLE    SUNNY     81  65  58 E6        30.06S
NW BLYTHEVILLE SUNNY     77  63  61 NE8       30.05S
$$

ARZ022-023-033-042-044-191800-
CENTRAL ARKANSAS

CITY           SKY/WX    TMP DP  RH WIND       PRES   REMARKS
LITTLE ROCK    MOSUNNY   80  67  64 CALM      30.04S
N LITTLE ROCK  MOSUNNY   80  69  70 SE7       30.04S
JACKSONVILLE   SUNNY     80  68  66 VRB5      30.03S
SEARCY         SUNNY     81  68  64 E7        30.04F
HOT SPRINGS    SUNNY     80  68  66 NE5       30.04S
RUSSELLVILLE   PTSUNNY   77  67  71 VRB3      30.04F
CLINTON        FAIR      79  68  69 CALM      30.05F
$$

ARZ036-191800-
EAST ARKANSAS

CITY           SKY/WX    TMP DP  RH WIND       PRES   REMARKS
WEST MEMPHIS   SUNNY     79  68  69 S5        30.03F
$$

ARZ050-053-066-070-073-191800-
SOUTHWEST ARKANSAS

CITY           SKY/WX    TMP DP  RH WIND       PRES   REMARKS
ARKADELPHIA    FAIR      81  71  71 E5        30.03S HX  85
CAMDEN         CLOUDY    75  66  73 SE3       30.03S
TEXARKANA      CLOUDY    73  70  90 E5        30.03R FOG
EL DORADO      CLOUDY    76  69  79 VRB5      30.03S
DE QUEEN       PTSUNNY   77  70  79 VRB3      30.01S
$$

ARZ056-057-069-191800-
SOUTHEAST ARKANSAS

CITY           SKY/WX    TMP DP  RH WIND       PRES   REMARKS
PINE BLUFF     SUNNY     80  67  64 VRB5      30.03S
STUTTGART      SUNNY     79  70  73 E3        30.04S
MONTICELLO     PTSUNNY   80  68  66 NE5       30.02F

$$




USA.gov is the U.S. government's official web portal to all federal, state and local government web resources and services.